STARLINK-3206 (49764 NORAD) Tracking and Keplerian Element Data
This shows tracking and keplerian element data for the satellite.
Feedback or suggestion? Click here.
Element | Value |
Catalog | 49764 |
Name | STARLINK-3206 |
Epoch Orbit | 130 |
Epoch Day | 140.58334491 |
Epoch Year | 2022 |
RAAN | 255.0618 |
Inclination | 53.2182 |
Eccentricity | 0.000195 |
Argument of Perigee | 41.4268 |
Mean Anonmoly | 250.0784 |
Mean Motion | 15.08866218 |
Decay Rate | -0.00067216 |
L1 | 1 49764U 21115AS 22140.58334491 -.00067216 00000+0 -42418-2 0 9990 |
L2 | 2 49764 53.2182 255.0618 0001950 41.4268 250.0784 15.08866218 1305 |
Live tracking and technical data element details for STARLINK-3206 (NORAD 49764). STARLINK-3206 can be tracked NOW for your location showing map with azimuth and elevation plus other details from your city location.
Track the satellite on the map from your city or location and see movement details for azimuth, elevation, latitude, longitude, range, height, and movement on the map or in text.
IsCatalogInMostPopularTable: catalog: 49764, numindb: 23
Update: records affected: 1
GetName: 49764 STARLINK-3206
Hit Count: updated at: Sun, 22 May 2022 05:19:16 GMT